[[{"header":{"parameterUnit":"m.s-1","parameterCategory":1,"la1":30.2991,"la2":30.254,"lo1":-89.0895,"lo2":-89.0444,"dy":0.0017,"dx":0.0017,"nx":28,"ny":28,"refTime":"2024-06-25T03:00:00:Z","depth":0,"parameterNumber":2,"parameterNumberName":"U-component_of_WINDS"},"data":[0,0,0,0,0,0,0,0,0,0,0,0,0,0,0,0,0,0,0,0,0,0,0,0,0,0,0,0,0,0,0,0,0,0,0,0,0,0,0,0,0,0,0,0,0,0,0,0,0,0,0,0,0,0,0,0,0,0,4.6021,4.6022,0,4.6108,4.6109,4.611,4.6048,4.6045,4.6042,4.6039,4.6131,4.6136,4.6141,0,0,0,0,0,0,0,0,0,0,0,0,0,4.5806,4.581,4.6021,4.6022,4.6023,4.6108,4.6109,4.611,4.6048,4.6045,4.6041,4.6038,4.6129,4.6135,4.6141,0,0,0,0,0,0,0,0,0,0,0,0,0,4.5897,4.5812,4.6021,4.6002,4.6002,4.6107,4.6109,4.611,4.6049,4.6045,4.604,4.6037,4.6127,4.6135,4.6142,4.6272,0,0,4.6165,4.6168,0,0,0,0,0,0,0,0,4.5892,4.5905,4.6004,4.6004,4.6003,4.6063,4.6067,4.6165,4.605,4.6031,4.6039,4.6035,4.6112,4.612,4.6146,4.6276,4.628,4.6166,4.617,4.6174,4.6176,0,0,0,0,0,0,0,4.5886,4.5901,4.6055,4.6006,4.6005,4.5991,4.6,4.6085,4.6094,4.6032,4.6028,4.6039,4.6111,4.6139,4.6148,4.6281,4.6166,4.6172,4.6177,4.618,4.6526,4.653,0,0,0,0,0,0,4.5881,4.5896,4.6053,4.6058,4.5936,4.5998,4.6008,4.6048,4.6093,4.6095,4.6042,4.6036,4.6128,4.6139,4.6151,4.6307,4.6174,4.6181,4.6185,4.6521,4.6527,4.6532,0,0,0,0,0,0,4.5876,4.5895,4.6049,4.5976,4.5994,4.6007,4.6052,4.6052,4.6079,4.61,4.6102,4.6069,4.6125,4.614,4.6243,4.6309,4.6184,4.6191,4.6516,4.6523,4.6529,4.6621,0,0,0,0,0,0,4.587,4.5894,4.5942,4.5977,4.5999,4.6139,4.6056,4.6056,4.6092,4.6084,4.6126,4.6129,4.6123,4.6232,4.625,4.6318,4.6197,4.651,4.6519,4.6527,4.6612,4.663,4.6645,0,0,0,0,0,4.5863,4.5964,4.5945,4.5964,4.6059,4.6143,4.6155,4.6146,4.6098,4.6147,4.6161,4.6127,4.6299,4.6243,4.6263,4.6334,4.6505,4.6516,4.6526,4.6604,4.6626,4.6645,0,0,0,0,0,0,4.5936,4.5968,4.5947,4.6063,4.6101,4.6132,4.6194,4.6169,4.6221,4.6212,4.6199,4.6209,4.6317,4.6336,4.6272,4.6463,4.6395,4.641,4.6447,4.6468,4.6485,4.6479,4.6203,0,0,0,0,0,4.5966,4.603,4.6055,4.6155,4.6175,4.6182,4.6217,4.6207,4.6246,4.6262,4.6283,4.6323,4.6386,4.6428,4.6487,4.6614,4.6623,4.6673,4.669,4.6703,4.6717,4.6788,4.6811,4.6566,4.6566,4.6566,0,0,4.6028,4.6053,4.6095,4.617,4.6198,4.6267,4.6195,4.627,4.6321,4.6273,4.6372,4.6389,4.6433,4.6549,4.6602,4.6568,4.6787,4.6717,4.6728,4.6734,4.6801,4.6824,4.6845,4.6573,4.6572,4.6571,0,0,4.6176,4.6201,4.6288,4.6318,4.6361,4.6365,4.6387,4.6423,4.6432,4.6531,4.6497,4.6559,4.6667,4.6701,4.6732,4.6896,4.6868,4.6916,4.7004,4.7074,4.7093,4.711,4.7171,4.7193,4.6929,4.693,4.693,0,4.6248,4.6349,4.6336,4.6414,4.645,4.641,4.6499,4.6529,4.659,4.6616,4.6577,4.6715,4.6741,4.6866,4.6906,4.6932,4.6958,4.6911,4.7091,4.7108,4.7124,4.7182,4.7204,4.6935,4.6935,4.6934,4.6933,0,4.6436,4.6507,4.6572,4.6632,4.6675,4.6758,4.676,4.6805,4.6792,4.6801,4.6904,4.6934,4.7,4.7029,4.7017,4.7153,4.7131,4.7092,4.7024,4.7153,4.7207,4.7229,4.6943,4.6941,4.694,4.6938,0,0,4.6632,4.6686,4.671,4.6738,4.6784,4.6839,4.6922,4.6986,4.7026,4.707,4.7141,4.7235,4.72,4.7236,4.7227,4.7288,4.7419,4.7242,4.7243,4.7275,4.7574,4.7604,4.7629,4.74,4.7404,4.7408,4.7571,0,4.6784,4.6928,4.692,4.7055,4.7122,4.7086,4.7159,4.7196,4.7207,4.7266,4.7279,4.7347,4.7294,4.7316,4.7374,4.7391,4.7479,4.7379,4.7468,4.7471,4.7459,4.7657,4.7689,4.7841,4.7592,4.7595,4.7598,0,4.698,4.7032,4.7174,4.7212,4.724,4.7305,4.7365,4.7421,4.7464,4.7468,4.7509,4.7491,4.7577,4.7506,4.7626,4.7558,4.7594,4.7608,4.7614,4.7623,4.7543,4.7673,4.7889,4.7913,4.7631,4.7628,4.7626,0,4.7112,4.7216,4.7315,4.734,4.7387,4.7434,4.7456,4.7494,4.7534,4.7587,4.7613,4.7675,4.771,4.7759,4.776,4.7707,4.7882,4.781,4.7889,4.789,4.7928,4.7926,4.8154,4.795,4.7949,4.7949,4.7948,0,4.7283,4.7372,4.7375,4.7436,4.7535,4.7527,4.7626,4.7643,4.7678,4.7743,4.7716,4.7778,4.7774,4.7838,4.7839,4.7939,4.7955,4.7962,4.7961,4.7965,4.7964,4.7989,4.7979,4.7955,4.7953,4.7952,4.7951,0,4.7447,4.7452,4.7558,4.7594,4.7606,4.7678,4.7709,4.7768,4.7777,4.7861,4.788,4.7895,4.7969,4.7974,4.8059,4.806,4.8182,4.8169,4.8168,4.8166,4.8245,4.8239,4.8499,4.8534,4.8305,4.8307,4.8309,0,4.7556,4.7624,4.7668,4.7709,4.7734,4.7801,4.7842,4.7837,4.7881,4.7936,4.7989,4.806,4.8117,4.8237,4.8256,4.8322,4.8311,4.8398,4.8321,4.8324,4.8315,4.8311,4.8319,4.8413,4.8416,4.8418,4.842,0,4.7751,4.7751,4.781,4.7872,4.7921,4.797,4.8015,4.8051,4.8051,4.8102,4.8177,4.8221,4.8309,4.838,4.8445,4.8469,4.8446,4.8444,4.8466,4.8471,4.8468,4.8472,4.821,4.8438,4.8436,4.8435,4.8434,4.8433,4.7892,4.7951,4.7992,4.806,4.8094,4.8137,4.8195,4.8212,4.8274,4.8344,4.8338,4.8421,4.8465,4.8549,4.8579,4.8645,4.8616,4.8648,4.8656,4.8664,4.8673,4.8457,4.8657,4.8656,4.8656,4.8656,4.8655,0,4.8087,4.8112,4.8174,4.8239,4.8293,4.8265,4.8314,4.8362,4.8435,4.8477,4.8534,4.8621,4.8691,4.8717,4.8786,4.8834,4.8826,4.8853,4.885,4.8856,4.8695,4.8669,4.8859,4.8859,4.8859,4.8859,4.8859,4.8859,4.8195,4.8295,4.83,4.8417,4.8441,4.8522,4.8553,4.8594,4.8627,4.8726,4.8784,4.88,4.8836,4.8908,4.8972,4.8978,4.9005,4.9037,4.9039,4.8888,4.8867,4.8848,4.8824,4.9043,4.9043,4.9195,4.9196,4.9198]},{"header":{"parameterUnit":"m.s-1","parameterCategory":1,"la1":30.2991,"la2":30.254,"lo1":-89.0895,"lo2":-89.0444,"dy":0.0017,"dx":0.0017,"nx":28,"ny":28,"refTime":"2024-06-25T03:00:00:Z","depth":0,"parameterNumber":3,"parameterNumberName":"V-component_of_WINDS"},"data":[0,0,0,0,0,0,0,0,0,0,0,0,0,0,0,0,0,0,0,0,0,0,0,0,0,0,0,0,0,0,0,0,0,0,0,0,0,0,0,0,0,0,0,0,0,0,0,0,0,0,0,0,0,0,0,0,0,0,0.0629,0.0629,0,0.0627,0.0627,0.0627,0.0598,0.0597,0.0597,0.0596,0.0595,0.0595,0.0596,0,0,0,0,0,0,0,0,0,0,0,0,0,0.061,0.061,0.0629,0.0629,0.0629,0.0627,0.0627,0.0627,0.0598,0.0597,0.0596,0.0596,0.0594,0.0595,0.0596,0,0,0,0,0,0,0,0,0,0,0,0,0,0.0614,0.061,0.0629,0.0615,0.0613,0.0627,0.0627,0.0627,0.0598,0.0597,0.0596,0.0595,0.0594,0.0595,0.0596,0.0624,0,0,0.0599,0.06,0,0,0,0,0,0,0,0,0.0614,0.0615,0.0617,0.0616,0.0614,0.0612,0.0619,0.0626,0.0599,0.0604,0.0596,0.0595,0.0601,0.0602,0.0604,0.0624,0.0624,0.0599,0.06,0.06,0.06,0,0,0,0,0,0,0,0.0613,0.0615,0.0628,0.0617,0.0615,0.0608,0.0608,0.0621,0.0609,0.0604,0.0601,0.0602,0.06,0.0603,0.0603,0.0624,0.0599,0.06,0.0601,0.0601,0.0666,0.0667,0,0,0,0,0,0,0.0615,0.0615,0.0629,0.0628,0.0611,0.061,0.0609,0.0614,0.0609,0.0607,0.0602,0.06,0.0602,0.0602,0.0603,0.0635,0.06,0.0601,0.0602,0.0665,0.0666,0.0667,0,0,0,0,0,0,0.0615,0.0617,0.0629,0.0621,0.0622,0.0611,0.0617,0.0614,0.0616,0.0608,0.0606,0.0607,0.0601,0.0602,0.0619,0.0634,0.0602,0.0602,0.0663,0.0665,0.0667,0.0699,0,0,0,0,0,0,0.0614,0.0617,0.0627,0.0621,0.0622,0.0644,0.0618,0.0615,0.0618,0.0615,0.0612,0.061,0.06,0.0617,0.062,0.0635,0.0603,0.0662,0.0664,0.0666,0.0696,0.0701,0.0706,0,0,0,0,0,0.0614,0.0637,0.0628,0.063,0.0635,0.0645,0.0646,0.0634,0.062,0.063,0.0624,0.061,0.0632,0.0619,0.0622,0.0638,0.0661,0.0663,0.0666,0.0694,0.07,0.0706,0,0,0,0,0,0,0.0646,0.0636,0.0626,0.0648,0.0647,0.064,0.0653,0.0641,0.0645,0.0642,0.0627,0.0626,0.0645,0.0643,0.0629,0.0664,0.0644,0.0647,0.0665,0.067,0.0675,0.0675,0.0604,0,0,0,0,0,0.0655,0.0664,0.0655,0.0675,0.0675,0.0664,0.0668,0.0659,0.0658,0.0658,0.0653,0.0653,0.066,0.0665,0.0671,0.0695,0.0694,0.0708,0.0712,0.0716,0.0719,0.0731,0.0737,0.0676,0.0676,0.0675,0,0,0.0675,0.0671,0.0677,0.0681,0.068,0.0689,0.0664,0.0676,0.0682,0.066,0.0675,0.0672,0.0671,0.0691,0.07,0.069,0.0736,0.0719,0.0723,0.0723,0.0734,0.074,0.0745,0.0677,0.0677,0.0677,0,0,0.0716,0.0714,0.073,0.0729,0.0727,0.0719,0.0723,0.0717,0.0714,0.0729,0.0712,0.0719,0.0732,0.0732,0.0733,0.0772,0.0759,0.0775,0.08,0.0811,0.0816,0.082,0.0834,0.0839,0.0778,0.0778,0.0778,0,0.0741,0.0754,0.074,0.0752,0.0754,0.0733,0.0749,0.0748,0.0749,0.0751,0.0739,0.0753,0.0751,0.0771,0.078,0.0782,0.0786,0.0775,0.0817,0.0821,0.0824,0.0837,0.0842,0.078,0.0779,0.0779,0.0779,0,0.0785,0.0794,0.0807,0.0807,0.0811,0.0825,0.0812,0.0818,0.0807,0.0801,0.0816,0.0812,0.0817,0.0821,0.0812,0.0839,0.0833,0.0819,0.0799,0.0832,0.0844,0.0849,0.0782,0.0782,0.0781,0.0781,0,0,0.0847,0.0837,0.0843,0.0842,0.0837,0.0844,0.0857,0.086,0.0865,0.0866,0.0876,0.0886,0.0873,0.0875,0.0865,0.0875,0.0906,0.086,0.086,0.0868,0.0935,0.0945,0.0951,0.0897,0.0898,0.0898,0.0935,0,0.0886,0.0907,0.0894,0.0916,0.0924,0.0904,0.0915,0.0913,0.0907,0.0913,0.0907,0.0914,0.0896,0.0897,0.0906,0.09,0.0919,0.0897,0.0906,0.0907,0.0907,0.0957,0.0968,0.1003,0.094,0.094,0.0941,0,0.0935,0.0936,0.096,0.0952,0.0955,0.0965,0.0967,0.0973,0.097,0.0965,0.0966,0.0954,0.0965,0.0945,0.0961,0.0947,0.0949,0.0947,0.0948,0.0948,0.0926,0.0959,0.1014,0.1019,0.0948,0.0947,0.0947,0,0.0977,0.0985,0.0999,0.1,0.0992,0.0999,0.0996,0.0993,0.0995,0.0997,0.0998,0.1001,0.1003,0.1006,0.0994,0.0981,0.1011,0.099,0.1007,0.1008,0.1015,0.1015,0.1071,0.1017,0.1017,0.1017,0.1017,0,0.1022,0.1037,0.1018,0.1027,0.1043,0.1028,0.1044,0.1039,0.1036,0.1044,0.1026,0.1034,0.1018,0.1024,0.1015,0.1029,0.103,0.1026,0.1024,0.1028,0.1028,0.103,0.1027,0.1018,0.1018,0.1017,0.1017,0,0.1072,0.106,0.1074,0.1065,0.1063,0.1076,0.1068,0.1076,0.1068,0.1078,0.108,0.1068,0.1074,0.1062,0.1067,0.1061,0.108,0.1074,0.1081,0.1079,0.1097,0.1095,0.1156,0.1163,0.1105,0.1105,0.1106,0,0.1101,0.1112,0.1104,0.1107,0.1105,0.1111,0.1113,0.1098,0.1102,0.1099,0.1107,0.1111,0.1114,0.1125,0.1117,0.112,0.1114,0.1135,0.1114,0.1117,0.1113,0.1113,0.1114,0.1139,0.114,0.114,0.1141,0,0.1154,0.1147,0.1151,0.1153,0.1155,0.1156,0.1155,0.1159,0.1143,0.1148,0.1153,0.1155,0.116,0.1164,0.1165,0.1162,0.1149,0.1147,0.1151,0.1155,0.1159,0.1157,0.1093,0.1146,0.1145,0.1145,0.1145,0.1144,0.1194,0.1203,0.1198,0.1202,0.12,0.1199,0.1206,0.1199,0.1203,0.1205,0.1196,0.1203,0.12,0.12,0.1198,0.1204,0.1194,0.12,0.1202,0.1204,0.1206,0.1158,0.1204,0.1204,0.1204,0.1204,0.1203,0,0.1246,0.1242,0.1246,0.1245,0.1248,0.1235,0.1233,0.1237,0.1243,0.1241,0.1243,0.1249,0.1253,0.1245,0.1248,0.1254,0.1248,0.1255,0.1255,0.1254,0.1215,0.1211,0.126,0.126,0.126,0.126,0.126,0.126,0.1274,0.1287,0.1279,0.1291,0.1286,0.1293,0.1293,0.1293,0.129,0.1298,0.1301,0.1295,0.129,0.1292,0.1295,0.1292,0.1294,0.1304,0.1299,0.1262,0.1257,0.1252,0.1248,0.1304,0.1304,0.1338,0.1338,0.1338]}]]